Location: Casilda
(33.0440°S, 61.1680°W)
Time: 14:11:40
(UTC-03:00)

ISS - Visible Passes

Search period start: 27 January 2021 00:00
Search period end: 06 February 2021 00:00
Orbit: 418 x 421 km, 51.6° (Epoch: 28 January)

Date Brightness Start Highest point End Pass type
(mag) Time Alt. Az. Time Alt. Az. Time Alt. Az.
27 Jan -1.5 03:51:25 26° SE 03:51:25 26° SE 03:53:03 10° SE visible
27 Jan -1.2 05:24:58 10° WSW 05:26:47 14° SSW 05:28:36 10° S visible
28 Jan -1.8 04:38:56 20° SW 04:39:16 20° SW 04:41:55 10° SSE visible
29 Jan -1.3 03:53:24 21° S 03:53:24 21° S 03:54:57 10° SSE visible
31 Jan -0.7 03:55:11 12° SSW 03:55:11 12° SSW 03:56:00 10° S visible
